EUTELSAT QUANTUM

Last updated on Tue Sep 22 2026 00:03:15 GMT+0000 (Coordinated Universal Time)

1 49056U 21069B 26264.49851740 .00000122 00000+0 00000+0 0 9993 2 49056 0.0263 62.8039 0002325 112.3506 52.4018 1.00272916 18899
UTC large
Height (km)
Speed (km/s)
/
Latitude / Longitude
Inclination (degrees)
Orbital Period (minutes)
Azimuth
Elevation
Range (km)
Doppler Factor

Next 0 passes for location: London (51.5072 / 0.1276)

No passes found over London.
EUTELSAT QUANTUM